Weather History for Dillon, MT

Change the Weather History Date:

Thursday, June 13, 2013

  Actual Average Record
Temperature  
Mean Temperature 54 °F 57 °F  
Max Temperature 66 °F 71 °F 90 °F (1959)
Min Temperature 41 °F 43 °F 32 °F (2001)
Degree Days  
Heating Degree Days 11    
Month to date heating degree days 87  
Since 1 June heating degree days 87  
Since 1 July heating degree days 7572  
Cooling Degree Days 0    
Month to date cooling degree days 0  
Year to date cooling degree days 3  
Since 1 June cooling degree days 0  
Growing Degree Days 4 (Base 50)    
Moisture  
Dew Point 44 °F    
Average Humidity 69    
Maximum Humidity 83    
Minimum Humidity 55    
Precipitation  
Precipitation 0.06 in 0.07 in 0.95 in (1982)
Month to date precipitation 0.62 1.04  
Year to date precipitation 3.55 5.11  
Snow  
Snow 0.00 in - - ()
Snow Depth 0.00 in    
Sea Level Pressure  
Sea Level Pressure 29.87 in    
Wind  
Wind Speed 8 mph (NNE)    
Max Wind Speed 24 mph    
Max Gust Speed 30 mph    
Visibility 10 miles    
Events Rain , Thunderstorm    
T = Trace of Precipitation, MM = Missing Value Source: NWS Daily Summary

Daily Weather History Graph

Daily Weather History Graph

Search for Another Location

Airport:

Trip Planner

Search our weather history database for the weather conditions in past years. The results will help you decide how hot, cold, wet, or windy it might be!

Date:

Astronomy

Jun. 13, 2013 Rise Set
Actual Time 5:41 AM MDT 9:19 PM MDT
Civil Twilight 5:04 AM MDT 9:56 PM MDT
Nautical Twilight 4:14 AM MDT 10:46 PM MDT
Astronomical Twilight 3:07 AM MDT 11:53 PM MDT
Moon 10:33 AM MDT (6/13) No Moon Set
Length of Visible Light 16h 52m
Length of Day
15h 37m
Waxing Crescent, 22% of the Moon is Illuminated
Jun 13
Waxing Crescent
Jun 16
First Quarter
Jun 23
Full
Jun 29
Last Quarter
Jul 8
New

Hourly Weather History & Observations

Time (MDT) Temp. Windchill Dew Point Humidity Pressure Visibility Wind Dir Wind Speed Gust Speed Precip Events Conditions
12:53 AM 55.0 °F - 44.1 °F 67% 29.82 in 10.0 mi NW 5.8 mph - N/A   Clear
1:53 AM 52.0 °F - 45.0 °F 77% 29.82 in 10.0 mi Calm Calm - N/A   Clear
2:53 AM 52.0 °F - 44.1 °F 74% 29.80 in 10.0 mi NNW 8.1 mph - N/A   Clear
3:53 AM 52.0 °F - 44.1 °F 74% 29.79 in 10.0 mi WNW 4.6 mph - N/A   Partly Cloudy
4:53 AM 52.0 °F - 44.1 °F 74% 29.81 in 10.0 mi SSW 4.6 mph - N/A   Mostly Cloudy
5:53 AM 51.1 °F - 46.0 °F 83% 29.80 in 10.0 mi NNE 3.5 mph - 0.00 in   Mostly Cloudy
6:53 AM 51.1 °F - 46.9 °F 86% 29.81 in 10.0 mi NNW 4.6 mph - N/A   Clear
7:53 AM 54.0 °F - 46.0 °F 75% 29.82 in 10.0 mi NNW 5.8 mph - N/A   Clear
8:53 AM 57.0 °F - 45.0 °F 64% 29.82 in 10.0 mi Calm Calm - N/A   Clear
9:53 AM 59.0 °F - 46.0 °F 62% 29.82 in 10.0 mi NNE 5.8 mph - N/A   Partly Cloudy
10:53 AM 62.1 °F - 46.9 °F 58% 29.79 in 10.0 mi North 6.9 mph - N/A   Partly Cloudy
11:53 AM 63.0 °F - 46.9 °F 56% 29.78 in 10.0 mi Variable 4.6 mph - N/A   Partly Cloudy
12:53 PM 63.0 °F - 46.0 °F 54% 29.79 in 10.0 mi NNW 9.2 mph - N/A   Partly Cloudy
1:46 PM 57.2 °F - 44.6 °F 63% 29.94 in 10.0 mi WNW 16.1 mph - N/A Thunderstorm Thunderstorm
1:53 PM 55.9 °F - 45.0 °F 67% 29.86 in 10.0 mi NW 16.1 mph 26.5 mph 0.00 in Rain , Thunderstorm Light Thunderstorms and Rain
2:17 PM 55.4 °F - 46.4 °F 72% 29.96 in 10.0 mi NW 16.1 mph - 0.00 in   Overcast
2:53 PM 55.9 °F - 44.1 °F 64% 29.89 in 10.0 mi ENE 13.8 mph - 0.00 in   Overcast
3:53 PM 57.9 °F - 41.0 °F 53% 29.89 in 10.0 mi NE 16.1 mph 26.5 mph N/A   Mostly Cloudy
4:53 PM 57.0 °F - 41.0 °F 55% 29.89 in 10.0 mi ENE 13.8 mph 25.3 mph N/A   Partly Cloudy
5:53 PM 57.9 °F - 44.1 °F 60% 29.88 in 10.0 mi NE 17.3 mph - 0.01 in Rain Light Rain
6:53 PM 54.0 °F - 41.0 °F 62% 29.92 in 10.0 mi NE 15.0 mph - 0.00 in   Overcast
7:53 PM 52.0 °F - 41.0 °F 66% 29.96 in 10.0 mi ENE 8.1 mph 16.1 mph 0.00 in   Overcast
8:53 PM 48.9 °F - 42.1 °F 77% 29.99 in 10.0 mi SSE 9.2 mph - 0.05 in Rain Light Rain
9:53 PM 48.0 °F - 41.0 °F 77% 29.99 in 10.0 mi SE 10.4 mph - 0.00 in   Mostly Cloudy
10:53 PM 46.0 °F 42.5 °F 39.0 °F 76% 30.00 in 10.0 mi ESE 6.9 mph - N/A   Partly Cloudy
11:53 PM 45.0 °F 43.5 °F 39.0 °F 80% 29.99 in 10.0 mi ENE 3.5 mph - N/A   Clear